| time (UTC) | temp F | wind direction | speed MPH | gust MPH | rain 1hr in | rain 24hr in | rain mn in | humidity % | barometer mb |
| 20260831010500 | 0 | 0.0 | 0.0 | 0.01 | 0.01 | 0.01 | 1020.9 | ||
| 20260831005959 | 0 | 0.0 | 0.0 | 0.01 | 0.01 | 0.01 | 1020.8 | ||
| 20260831005410 | 0 | 0.0 | 0.0 | 0.01 | 0.01 | 0.01 | 1020.9 | ||
| 20260831004301 | 0 | 0.0 | 0.0 | 0.01 | 0.01 | 0.01 | 1020.7 | ||
| 20260831002716 | 70 | 127 | 0.0 | 0.0 | 0.01 | 0.01 | 0.01 | 94 | 1020.7 |
| 20260831002213 | 70 | 126 | 0.0 | 0.0 | 0.01 | 0.01 | 0.01 | 93 | 1020.6 |
| 20260831001714 | 70 | 126 | 0.0 | 0.0 | 0.01 | 0.01 | 0.01 | 93 | 1020.6 |
| 20260831001216 | 70 | 126 | 0.0 | 0.0 | 0.01 | 0.01 | 0.01 | 93 | 1020.4 |
| 20260831000714 | 70 | 126 | 0.0 | 0.0 | 0.00 | 0.00 | 0.00 | 93 | 1020.4 |
| 20260830235713 | 71 | 126 | 0.0 | 1.0 | 0.00 | 0.00 | 0.00 | 92 | 1020.4 |
| 20260830235215 | 71 | 126 | 0.0 | 1.0 | 0.00 | 0.00 | 0.00 | 92 | 1020.3 |
| 20260830234710 | 71 | 126 | 0.0 | 1.0 | 0.00 | 0.00 | 0.00 | 91 | 1020.3 |
| 20260830234210 | 71 | 126 | 0.0 | 0.0 | 0.00 | 0.00 | 0.00 | 91 | 1020.1 |
| 20260830233709 | 71 | 126 | 0.0 | 0.0 | 0.00 | 0.00 | 0.00 | 91 | 1020.1 |
| 20260830233210 | 71 | 126 | 0.0 | 0.0 | 0.00 | 0.00 | 0.00 | 91 | 1020.1 |
| 20260830232711 | 71 | 126 | 0.0 | 0.0 | 0.00 | 0.00 | 0.00 | 90 | 1020.1 |
| 20260830231709 | 71 | 126 | 0.0 | 0.0 | 0.00 | 0.00 | 0.00 | 90 | 1020.1 |
| 20260830231210 | 72 | 126 | 0.0 | 0.0 | 0.00 | 0.00 | 0.00 | 90 | 1020.0 |
| 20260830230211 | 72 | 126 | 0.0 | 0.0 | 0.00 | 0.00 | 0.00 | 89 | 1019.9 |
| 20260830225710 | 72 | 126 | 0.0 | 0.0 | 0.00 | 0.00 | 0.00 | 89 | 1020.2 |
| 20260830224711 | 72 | 126 | 0.0 | 0.0 | 0.00 | 0.00 | 0.00 | 89 | 1020.1 |
| 20260830223710 | 72 | 126 | 0.0 | 0.0 | 0.00 | 0.00 | 0.00 | 88 | 1020.3 |
| 20260830223211 | 72 | 126 | 0.0 | 0.0 | 0.00 | 0.00 | 0.00 | 88 | 1020.2 |
| 20260830222207 | 73 | 126 | 0.0 | 0.0 | 0.00 | 0.00 | 0.00 | 88 | 1020.2 |
| 20260830221705 | 73 | 126 | 0.0 | 1.0 | 0.00 | 0.00 | 0.00 | 88 | 1020.1 |
| 20260830221204 | 73 | 126 | 0.0 | 1.0 | 0.00 | 0.00 | 0.00 | 88 | 1020.2 |
| 20260830220658 | 73 | 126 | 0.0 | 1.0 | 0.00 | 0.00 | 0.00 | 87 | 1020.2 |
| 20260830220152 | 73 | 126 | 0.0 | 0.0 | 0.00 | 0.00 | 0.00 | 87 | 1020.2 |
| 20260830215646 | 73 | 125 | 0.0 | 0.0 | 0.00 | 0.00 | 0.00 | 87 | 1020.2 |
| 20260830215139 | 73 | 125 | 0.0 | 0.0 | 0.00 | 0.00 | 0.00 | 87 | 1020.1 |
| 20260830214634 | 73 | 125 | 0.0 | 0.0 | 0.00 | 0.00 | 0.00 | 87 | 1020.2 |
| 20260830214129 | 73 | 125 | 0.0 | 0.0 | 0.00 | 0.00 | 0.00 | 87 | 1020.2 |
| 20260830213622 | 73 | 125 | 0.0 | 1.0 | 0.00 | 0.00 | 0.00 | 87 | 1020.1 |
| 20260830213116 | 73 | 125 | 0.0 | 1.0 | 0.00 | 0.00 | 0.00 | 87 | 1020.1 |
| 20260830212611 | 73 | 125 | 0.0 | 1.0 | 0.00 | 0.00 | 0.00 | 86 | 1020.1 |
| 20260830212104 | 73 | 125 | 0.0 | 1.0 | 0.00 | 0.00 | 0.00 | 86 | 1020.1 |
| 20260830211558 | 73 | 125 | 0.0 | 1.0 | 0.00 | 0.00 | 0.00 | 86 | 1020.0 |
| 20260830211052 | 73 | 125 | 0.0 | 1.0 | 0.00 | 0.00 | 0.00 | 86 | 1020.1 |
| 20260830210546 | 73 | 129 | 0.0 | 1.0 | 0.00 | 0.00 | 0.00 | 86 | 1020.1 |
| 20260830210040 | 73 | 134 | 0.0 | 1.0 | 0.00 | 0.00 | 0.00 | 86 | 1020.1 |
| 20260830205533 | 73 | 131 | 0.0 | 0.0 | 0.00 | 0.00 | 0.00 | 86 | 1020.3 |
| 20260830205027 | 73 | 162 | 0.0 | 1.0 | 0.00 | 0.00 | 0.00 | 85 | 1020.3 |
| 20260830204522 | 73 | 170 | 0.0 | 2.0 | 0.00 | 0.00 | 0.00 | 85 | 1020.3 |
| 20260830204017 | 73 | 128 | 0.0 | 2.0 | 0.00 | 0.00 | 0.00 | 85 | 1020.4 |
| 20260830203510 | 73 | 167 | 0.0 | 1.0 | 0.00 | 0.00 | 0.00 | 85 | 1020.4 |
| 20260830203004 | 73 | 195 | 0.0 | 1.0 | 0.00 | 0.00 | 0.00 | 84 | 1020.6 |
| 20260830202457 | 73 | 200 | 0.0 | 0.0 | 0.00 | 0.00 | 0.00 | 85 | 1020.7 |
| 20260830201952 | 74 | 200 | 0.0 | 1.0 | 0.00 | 0.00 | 0.00 | 84 | 1020.6 |
| 20260830201446 | 74 | 153 | 0.0 | 1.0 | 0.00 | 0.00 | 0.00 | 84 | 1020.4 |
| 20260830200434 | 74 | 104 | 0.0 | 1.0 | 0.00 | 0.00 | 0.00 | 83 | 1020.6 |
| 20260830195422 | 74 | 119 | 0.0 | 1.0 | 0.00 | 0.00 | 0.00 | 83 | 1020.6 |
| 20260830194916 | 74 | 196 | 0.0 | 1.0 | 0.00 | 0.00 | 0.00 | 82 | 1020.6 |
| 20260830193357 | 73 | 153 | 0.0 | 1.0 | 0.00 | 0.00 | 0.00 | 81 | 1020.9 |
| 20260830192858 | 74 | 119 | 0.0 | 0.0 | 0.00 | 0.00 | 0.00 | 81 | 1021.0 |
| 20260830192359 | 74 | 162 | 0.0 | 2.0 | 0.00 | 0.00 | 0.00 | 80 | 1021.2 |
| 20260830191858 | 74 | 162 | 0.0 | 2.0 | 0.00 | 0.00 | 0.00 | 80 | 1021.2 |
| 20260830191357 | 74 | 121 | 0.0 | 1.0 | 0.00 | 0.00 | 0.00 | 79 | 1021.2 |
| 20260830190858 | 74 | 162 | 0.0 | 0.0 | 0.00 | 0.00 | 0.00 | 79 | 1021.4 |
| 20260830190356 | 74 | 199 | 0.0 | 1.0 | 0.00 | 0.00 | 0.00 | 79 | 1021.5 |
| 20260830185854 | 74 | 199 | 0.0 | 1.0 | 0.00 | 0.00 | 0.00 | 77 | 1021.7 |
| 20260830185353 | 74 | 129 | 0.0 | 2.0 | 0.00 | 0.00 | 0.00 | 76 | 1021.5 |
| 20260830184854 | 75 | 118 | 0.0 | 4.0 | 0.00 | 0.00 | 0.00 | 76 | 1021.6 |
| 20260830184352 | 75 | 130 | 0.0 | 4.0 | 0.00 | 0.00 | 0.00 | 74 | 1021.7 |
| 20260830183850 | 75 | 128 | 0.0 | 3.0 | 0.00 | 0.00 | 0.00 | 74 | 1021.6 |
| 20260830183348 | 75 | 118 | 0.0 | 1.0 | 0.00 | 0.00 | 0.00 | 75 | 1021.8 |
| 20260830182345 | 76 | 124 | 0.0 | 2.0 | 0.00 | 0.00 | 0.00 | 73 | 1021.9 |
| 20260830181846 | 76 | 74 | 1.0 | 3.0 | 0.00 | 0.00 | 0.00 | 72 | 1021.8 |
| 20260830180843 | 76 | 205 | 1.0 | 4.0 | 0.00 | 0.00 | 0.00 | 70 | 1021.9 |
| 20260830180344 | 76 | 141 | 1.0 | 4.0 | 0.00 | 0.00 | 0.00 | 71 | 1022.0 |
| 20260830175838 | 76 | 210 | 0.0 | 3.0 | 0.00 | 0.00 | 0.00 | 69 | 1022.0 |
| 20260830175336 | 76 | 98 | 0.0 | 5.0 | 0.00 | 0.00 | 0.00 | 71 | 1022.1 |
| 20260830174836 | 76 | 105 | 1.0 | 5.0 | 0.00 | 0.00 | 0.00 | 70 | 1022.0 |
| 20260830174337 | 77 | 107 | 1.0 | 3.0 | 0.00 | 0.00 | 0.00 | 70 | 1022.2 |
| 20260830173835 | 77 | 120 | 1.0 | 5.0 | 0.00 | 0.00 | 0.00 | 69 | 1022.2 |
| 20260830173335 | 77 | 117 | 1.0 | 5.0 | 0.00 | 0.00 | 0.00 | 69 | 1022.0 |
| 20260830172836 | 77 | 139 | 1.0 | 3.0 | 0.00 | 0.00 | 0.00 | 68 | 1022.0 |
| 20260830172334 | 77 | 129 | 1.0 | 3.0 | 0.00 | 0.00 | 0.00 | 68 | 1022.2 |
| 20260830171831 | 77 | 208 | 0.0 | 2.0 | 0.00 | 0.00 | 0.00 | 69 | 1022.3 |
| 20260830171331 | 77 | 155 | 1.0 | 7.0 | 0.00 | 0.00 | 0.00 | 70 | 1022.4 |
| 20260830170830 | 76 | 160 | 1.0 | 7.0 | 0.00 | 0.00 | 0.00 | 69 | 1022.4 |
| 20260830170332 | 76 | 158 | 0.0 | 2.0 | 0.00 | 0.00 | 0.00 | 70 | 1022.6 |
| 20260830165832 | 76 | 125 | 0.0 | 2.0 | 0.00 | 0.00 | 0.00 | 69 | 1022.6 |
| 20260830165332 | 76 | 166 | 0.0 | 2.0 | 0.00 | 0.00 | 0.00 | 68 | 1022.6 |
| 20260830164831 | 76 | 149 | 0.0 | 2.0 | 0.00 | 0.00 | 0.00 | 69 | 1022.5 |
| 20260830164331 | 75 | 148 | 0.0 | 2.0 | 0.00 | 0.00 | 0.00 | 67 | 1022.6 |
| 20260830163831 | 75 | 218 | 0.0 | 2.0 | 0.00 | 0.00 | 0.00 | 66 | 1022.6 |
| 20260830162831 | 75 | 120 | 0.0 | 4.0 | 0.00 | 0.00 | 0.00 | 65 | 1022.8 |
| 20260830162330 | 74 | 231 | 0.0 | 2.0 | 0.00 | 0.00 | 0.00 | 67 | 1022.8 |
| 20260830161831 | 74 | 140 | 0.0 | 3.0 | 0.00 | 0.00 | 0.00 | 66 | 1022.7 |
| 20260830161331 | 74 | 166 | 1.0 | 3.0 | 0.00 | 0.00 | 0.00 | 66 | 1022.9 |
| 20260830160831 | 74 | 134 | 1.0 | 3.0 | 0.00 | 0.00 | 0.00 | 65 | 1023.0 |
| 20260830155831 | 74 | 98 | 1.0 | 3.0 | 0.00 | 0.00 | 0.00 | 65 | 1023.3 |
| 20260830155329 | 74 | 170 | 0.0 | 3.0 | 0.00 | 0.00 | 0.00 | 69 | 1023.1 |
| 20260830154326 | 74 | 118 | 0.0 | 2.0 | 0.00 | 0.00 | 0.00 | 70 | 1023.3 |
| 20260830153828 | 74 | 113 | 0.0 | 2.0 | 0.00 | 0.00 | 0.00 | 69 | 1023.2 |
| 20260830153326 | 74 | 130 | 0.0 | 1.0 | 0.00 | 0.00 | 0.00 | 71 | 1023.4 |
| 20260830152325 | 73 | 113 | 0.0 | 4.0 | 0.00 | 0.00 | 0.00 | 69 | 1023.6 |
| 20260830151819 | 74 | 115 | 0.0 | 2.0 | 0.00 | 0.00 | 0.00 | 69 | 1023.7 |
| 20260830151313 | 74 | 134 | 0.0 | 2.0 | 0.00 | 0.00 | 0.00 | 68 | 1023.7 |
| 20260830150807 | 74 | 192 | 0.0 | 2.0 | 0.00 | 0.00 | 0.00 | 71 | 1023.7 |
| 20260830150301 | 74 | 139 | 0.0 | 1.0 | 0.00 | 0.00 | 0.00 | 72 | 1023.7 |
| 20260830145756 | 73 | 108 | 0.0 | 2.0 | 0.00 | 0.00 | 0.00 | 73 | 1023.8 |
| 20260830145249 | 73 | 108 | 0.0 | 1.0 | 0.00 | 0.00 | 0.00 | 73 | 1023.8 |
| 20260830144743 | 73 | 85 | 0.0 | 3.0 | 0.00 | 0.00 | 0.00 | 73 | 1023.8 |
| 20260830143732 | 72 | 68 | 0.0 | 2.0 | 0.00 | 0.00 | 0.00 | 75 | 1023.8 |
| 20260830142719 | 72 | 110 | 0.0 | 2.0 | 0.00 | 0.00 | 0.00 | 75 | 1023.7 |
| 20260830142213 | 71 | 110 | 0.0 | 2.0 | 0.00 | 0.00 | 0.00 | 75 | 1023.7 |
| 20260830141211 | 71 | 101 | 0.0 | 1.0 | 0.00 | 0.00 | 0.00 | 74 | 1023.6 |
| 20260830140710 | 71 | 101 | 0.0 | 1.0 | 0.00 | 0.00 | 0.00 | 73 | 1023.6 |
| 20260830140209 | 71 | 117 | 0.0 | 1.0 | 0.00 | 0.00 | 0.00 | 74 | 1023.6 |
| 20260830135708 | 70 | 113 | 0.0 | 1.0 | 0.00 | 0.00 | 0.00 | 74 | 1023.7 |
| 20260830135206 | 70 | 88 | 0.0 | 1.0 | 0.00 | 0.00 | 0.00 | 75 | 1023.7 |
| 20260830133201 | 0 | 0.0 | 0.0 | 0.00 | 0.00 | 0.00 | 1024.0 | ||
| 20260830132658 | 0 | 0.0 | 0.0 | 0.00 | 0.00 | 0.00 | 1023.9 | ||
| 20260830132106 | 0 | 0.0 | 0.0 | 0.00 | 0.00 | 0.00 | 1024.1 | ||
| 20260830131605 | 0 | 0.0 | 0.0 | 0.00 | 0.00 | 0.00 | 1024.1 | ||
| 20260830131057 | 0 | 0.0 | 0.0 | 0.00 | 0.00 | 0.00 | 1024.1 | ||
| 20260830125957 | 0 | 0.0 | 0.0 | 0.00 | 0.00 | 0.00 | 1024.2 | ||
| 20260830125406 | 0 | 0.0 | 0.0 | 0.00 | 0.00 | 0.00 | 1024.3 | ||
| 20260830124905 | 0 | 0.0 | 0.0 | 0.00 | 0.00 | 0.00 | 1024.3 | ||
| 20260830124357 | 0 | 0.0 | 0.0 | 0.00 | 0.00 | 0.00 | 1024.3 | ||
| 20260830123854 | 0 | 0.0 | 0.0 | 0.00 | 0.00 | 0.00 | 1024.3 | ||
| 20260830123256 | 0 | 0.0 | 0.0 | 0.00 | 0.00 | 0.00 | 1024.3 | ||
| 20260830122704 | 0 | 0.0 | 0.0 | 0.00 | 0.00 | 0.00 | 1024.3 | ||
| 20260830122159 | 0 | 0.0 | 0.0 | 0.00 | 0.00 | 0.00 | 1024.5 | ||
| 20260830120500 | 0 | 0.0 | 0.0 | 0.00 | 0.00 | 0.00 | 1024.6 | ||
| 20260830115905 | 0 | 0.0 | 0.0 | 0.00 | 0.00 | 0.00 | 1024.6 | ||
| 20260830115403 | 0 | 0.0 | 0.0 | 0.00 | 0.00 | 0.00 | 1024.6 | ||
| 20260830114807 | 0 | 0.0 | 0.0 | 0.00 | 0.00 | 0.00 | 1024.7 | ||
| 20260830114303 | 0 | 0.0 | 0.0 | 0.00 | 0.00 | 0.00 | 1024.7 | ||
| 20260830113801 | 0 | 0.0 | 0.0 | 0.00 | 0.00 | 0.00 | 1024.7 | ||
| 20260830113253 | 0 | 0.0 | 0.0 | 0.00 | 0.00 | 0.00 | 1024.6 | ||
| 20260830112701 | 0 | 0.0 | 0.0 | 0.00 | 0.00 | 0.00 | 1024.7 | ||
| 20260830112157 | 0 | 0.0 | 0.0 | 0.00 | 0.00 | 0.00 | 1024.7 | ||
| 20260830111606 | 0 | 0.0 | 0.0 | 0.00 | 0.00 | 0.00 | 1024.5 | ||
| 20260830111102 | 0 | 0.0 | 0.0 | 0.00 | 0.00 | 0.00 | 1024.5 | ||
| 20260830110555 | 0 | 0.0 | 0.0 | 0.00 | 0.00 | 0.00 | 1024.5 | ||
| 20260830105959 | 0 | 0.0 | 0.0 | 0.00 | 0.00 | 0.00 | 1024.5 | ||
| 20260830105500 | 0 | 0.0 | 0.0 | 0.00 | 0.00 | 0.00 | 1024.4 | ||
| 20260830104953 | 0 | 0.0 | 0.0 | 0.00 | 0.00 | 0.00 | 1024.6 | ||
| 20260830104401 | 0 | 0.0 | 0.0 | 0.00 | 0.00 | 0.00 | 1024.3 | ||
| 20260830103355 | 0 | 0.0 | 0.0 | 0.00 | 0.00 | 0.00 | 1024.4 | ||
| 20260830102801 | 0 | 0.0 | 0.0 | 0.00 | 0.00 | 0.00 | 1024.4 | ||
| 20260830102300 | 0 | 0.0 | 0.0 | 0.00 | 0.00 | 0.00 | 1024.4 | ||
| 20260830101752 | 0 | 0.0 | 0.0 | 0.00 | 0.00 | 0.00 | 1024.4 | ||
| 20260830101251 | 0 | 0.0 | 0.0 | 0.00 | 0.00 | 0.00 | 1024.5 | ||
| 20260830100701 | 0 | 0.0 | 0.0 | 0.00 | 0.00 | 0.00 | 1024.5 | ||
| 20260830100200 | 0 | 0.0 | 0.0 | 0.00 | 0.00 | 0.00 | 1024.5 | ||
| 20260830095657 | 0 | 0.0 | 0.0 | 0.00 | 0.00 | 0.00 | 1024.5 | ||
| 20260830095154 | 0 | 0.0 | 0.0 | 0.00 | 0.00 | 0.00 | 1024.4 | ||
| 20260830094554 | 0 | 0.0 | 0.0 | 0.00 | 0.00 | 0.00 | 1024.4 | ||
| 20260830094050 | 0 | 0.0 | 0.0 | 0.00 | 0.00 | 0.00 | 1024.4 | ||
| 20260830092957 | 0 | 0.0 | 0.0 | 0.00 | 0.00 | 0.00 | 1024.5 | ||
| 20260830092456 | 0 | 0.0 | 0.0 | 0.00 | 0.00 | 0.00 | 1024.3 | ||
| 20260830091957 | 0 | 0.0 | 0.0 | 0.00 | 0.00 | 0.00 | 1024.4 | ||
| 20260830091456 | 0 | 0.0 | 0.0 | 0.00 | 0.00 | 0.00 | 1024.4 | ||
| 20260830090904 | 0 | 0.0 | 0.0 | 0.00 | 0.00 | 0.00 | 1024.5 | ||
| 20260830090358 | 0 | 0.0 | 0.0 | 0.00 | 0.00 | 0.00 | 1024.6 | ||
| 20260830085857 | 0 | 0.0 | 0.0 | 0.00 | 0.00 | 0.00 | 1024.5 | ||
| 20260830085306 | 0 | 0.0 | 0.0 | 0.00 | 0.00 | 0.00 | 1024.5 | ||
| 20260830084704 | 0 | 0.0 | 0.0 | 0.00 | 0.00 | 0.00 | 1024.6 | ||
| 20260830083658 | 0 | 0.0 | 0.0 | 0.00 | 0.00 | 0.00 | 1024.5 | ||
| 20260830083101 | 0 | 0.0 | 0.0 | 0.00 | 0.00 | 0.00 | 1024.4 | ||
| 20260830082556 | 0 | 0.0 | 0.0 | 0.00 | 0.00 | 0.00 | 1024.6 | ||
| 20260830081505 | 0 | 0.0 | 0.0 | 0.00 | 0.00 | 0.00 | 1024.6 | ||
| 20260830081000 | 0 | 0.0 | 0.0 | 0.00 | 0.00 | 0.00 | 1024.7 | ||
| 20260830080458 | 0 | 0.0 | 0.0 | 0.00 | 0.00 | 0.00 | 1024.7 | ||
| 20260830075405 | 0 | 0.0 | 0.0 | 0.00 | 0.00 | 0.00 | 1024.7 | ||
| 20260830074901 | 0 | 0.0 | 0.0 | 0.00 | 0.00 | 0.00 | 1024.9 | ||
| 20260830073900 | 0 | 0.0 | 0.0 | 0.00 | 0.00 | 0.00 | 1024.7 | ||
| 20260830073358 | 0 | 0.0 | 0.0 | 0.00 | 0.00 | 0.00 | 1024.6 | ||
| 20260830072855 | 0 | 0.0 | 0.0 | 0.00 | 0.00 | 0.00 | 1024.6 | ||
| 20260830072350 | 0 | 0.0 | 0.0 | 0.00 | 0.00 | 0.00 | 1024.4 | ||
| 20260830071757 | 0 | 0.0 | 0.0 | 0.00 | 0.00 | 0.00 | 1024.5 | ||
| 20260830071258 | 0 | 0.0 | 0.0 | 0.00 | 0.00 | 0.00 | 1024.5 | ||
| 20260830070204 | 0 | 0.0 | 0.0 | 0.00 | 0.00 | 0.00 | 1024.4 | ||
| 20260830065701 | 0 | 0.0 | 0.0 | 0.00 | 0.00 | 0.00 | 1024.4 | ||
| 20260830064654 | 0 | 0.0 | 0.0 | 0.00 | 0.00 | 0.00 | 1024.6 | ||
| 20260830064056 | 0 | 0.0 | 0.0 | 0.00 | 0.00 | 0.00 | 1024.6 | ||
| 20260830062956 | 0 | 0.0 | 0.0 | 0.00 | 0.00 | 0.00 | 1024.7 | ||
| 20260830062400 | 0 | 0.0 | 0.0 | 0.00 | 0.00 | 0.00 | 1024.7 | ||
| 20260830061307 | 0 | 0.0 | 0.0 | 0.00 | 0.00 | 0.00 | 1024.7 | ||
| 20260830060803 | 0 | 0.0 | 0.0 | 0.00 | 0.00 | 0.00 | 1024.7 | ||
| 20260830055754 | 0 | 0.0 | 0.0 | 0.00 | 0.00 | 0.00 | 1024.6 | ||
| 20260830055208 | 0 | 0.0 | 0.0 | 0.00 | 0.00 | 0.00 | 1024.5 | ||
| 20260830054700 | 0 | 0.0 | 0.0 | 0.00 | 0.00 | 0.00 | 1024.4 | ||
| 20260830054156 | 0 | 0.0 | 0.0 | 0.00 | 0.00 | 0.00 | 1024.6 | ||
| 20260830053655 | 0 | 0.0 | 0.0 | 0.00 | 0.00 | 0.00 | 1024.4 | ||
| 20260830053058 | 0 | 0.0 | 0.0 | 0.00 | 0.00 | 0.00 | 1024.4 | ||
| 20260830052555 | 0 | 0.0 | 0.0 | 0.00 | 0.00 | 0.00 | 1024.4 | ||
| 20260830052009 | 0 | 0.0 | 0.0 | 0.00 | 0.00 | 0.00 | 1024.4 | ||
| 20260830051456 | 0 | 0.0 | 0.0 | 0.00 | 0.00 | 0.00 | 1024.5 | ||
| 20260830050900 | 0 | 0.0 | 0.0 | 0.00 | 0.00 | 0.00 | 1024.6 | ||
| 20260830044756 | 0 | 0.0 | 0.0 | 0.00 | 0.00 | 0.00 | 1024.6 | ||
| 20260830043748 | 0 | 0.0 | 0.0 | 0.00 | 0.00 | 0.00 | 1024.7 | ||
| 20260830043203 | 0 | 0.0 | 0.0 | 0.00 | 0.00 | 0.00 | 1024.7 | ||
| 20260830042658 | 0 | 0.0 | 0.0 | 0.00 | 0.00 | 0.00 | 1024.6 | ||
| 20260830042059 | 0 | 0.0 | 0.0 | 0.00 | 0.00 | 0.00 | 1024.6 | ||
| 20260830041554 | 0 | 0.0 | 0.0 | 0.00 | 0.00 | 0.00 | 1024.4 | ||
| 20260830041007 | 0 | 0.0 | 0.0 | 0.00 | 0.00 | 0.00 | 1024.5 | ||
| 20260830040505 | 0 | 0.0 | 0.0 | 0.00 | 0.00 | 0.00 | 1024.4 | ||
| 20260830040004 | 0 | 0.0 | 0.0 | 0.00 | 0.00 | 0.00 | 1024.4 | ||
| 20260830035458 | 0 | 0.0 | 0.0 | 0.00 | 0.00 | 0.00 | 1024.5 | ||
| 20260830034900 | 0 | 0.0 | 0.0 | 0.00 | 0.00 | 0.00 | 1024.6 | ||
| 20260830034359 | 0 | 0.0 | 0.0 | 0.00 | 0.00 | 0.00 | 1024.4 | ||
| 20260830033808 | 0 | 0.0 | 0.0 | 0.00 | 0.00 | 0.00 | 1024.4 | ||
| 20260830033258 | 0 | 0.0 | 0.0 | 0.00 | 0.00 | 0.00 | 1024.5 | ||
| 20260830032755 | 0 | 0.0 | 0.0 | 0.00 | 0.00 | 0.00 | 1024.5 | ||
| 20260830032209 | 0 | 0.0 | 0.0 | 0.00 | 0.00 | 0.00 | 1024.5 | ||
| 20260830031706 | 0 | 0.0 | 0.0 | 0.00 | 0.00 | 0.00 | 1024.5 | ||
| 20260830031200 | 0 | 0.0 | 0.0 | 0.00 | 0.00 | 0.00 | 1024.5 | ||
| 20260830030655 | 0 | 0.0 | 0.0 | 0.00 | 0.00 | 0.00 | 1024.5 | ||
| 20260830025005 | 0 | 0.0 | 0.0 | 0.00 | 0.00 | 0.00 | 1024.6 | ||
| 20260830024500 | 0 | 0.0 | 0.0 | 0.00 | 0.00 | 0.00 | 1024.5 | ||
| 20260830023957 | 0 | 0.0 | 0.0 | 0.00 | 0.00 | 0.00 | 1024.5 | ||
| 20260830023403 | 0 | 0.0 | 0.0 | 0.00 | 0.00 | 0.00 | 1024.5 | ||
| 20260830022901 | 0 | 0.0 | 0.0 | 0.00 | 0.00 | 0.00 | 1024.4 | ||
| 20260830022403 | 0 | 0.0 | 0.0 | 0.00 | 0.00 | 0.00 | 1024.4 | ||
| 20260830021801 | 0 | 0.0 | 0.0 | 0.00 | 0.00 | 0.00 | 1024.3 | ||
| 20260830021302 | 0 | 0.0 | 0.0 | 0.00 | 0.00 | 0.00 | 1024.5 | ||
| 20260830020711 | 0 | 0.0 | 0.0 | 0.00 | 0.00 | 0.00 | 1024.4 | ||
| 20260830015705 | 0 | 0.0 | 0.0 | 0.00 | 0.00 | 0.00 | 1024.5 | ||
| 20260830015203 | 0 | 0.0 | 0.0 | 0.00 | 0.00 | 0.00 | 1024.4 | ||
| 20260830014657 | 0 | 0.0 | 0.0 | 0.00 | 0.00 | 0.00 | 1024.4 | ||
| 20260830014109 | 0 | 0.0 | 0.0 | 0.00 | 0.00 | 0.00 | 1024.6 | ||
| 20260830013604 | 0 | 0.0 | 0.0 | 0.00 | 0.00 | 0.00 | 1024.6 | ||
| 20260830013101 | 0 | 0.0 | 0.0 | 0.00 | 0.00 | 0.00 | 1024.4 | ||
| 20260830012559 | 0 | 0.0 | 0.0 | 0.00 | 0.00 | 0.00 | 1024.4 | ||
| 20260830012057 | 0 | 0.0 | 0.0 | 0.00 | 0.00 | 0.00 | 1024.4 | ||
| 20260830011502 | 0 | 0.0 | 0.0 | 0.00 | 0.00 | 0.00 | 1024.3 | ||
| 20260830011002 | 0 | 0.0 | 0.0 | 0.00 | 0.00 | 0.00 | 1024.3 |